Skip Page Navigation
NASA JPL Caltech
NASA Logo - Jet Propulsion Laboratory + View the NASA Portal
+ Near-Earth Object (NEO) Program
Search JPL
JPL Home Earth Solar System Stars & Galaxies Technology
JPL Solar System Dynamics
BODIES ORBITS EPHEMERIDES TOOLS PHYSICAL DATA DISCOVERY FAQ SITE MAP
JPL Small-Body Database Browser
Search: [ help ]  
4822 Karge (1986 TC1)
Classification: Main-belt Asteroid          SPK-ID: 2004822
Ephemeris | Orbit Diagram | Orbital Elements | Physical Parameters | Discovery Circumstances ]

[ show orbit diagram ]
Orbital Elements at Epoch 2457000.5 (2014-Dec-09.0) TDB
Reference: JPL 16 (heliocentric ecliptic J2000)
 Element Value Uncertainty (1-sigma)   Units 
e .1858969700120711 5.1981e-08  
a 2.252696688677343 1.0467e-08 AU
q 1.833927199895999 1.1877e-07 AU
i 4.050144033250498 5.63e-06 deg
node 141.4094280605096 7.4213e-05 deg
peri 264.4804529420295 7.5737e-05 deg
M 99.4958751074677 1.5851e-05 deg
tp 2456659.185229219734
(2014-Jan-01.68522922)
5.3514e-05 JED
period 1234.958910087252
3.38
8.607e-06
2.356e-08
d
yr
n .2915076745140983 2.0317e-09 deg/d
Q 2.671466177458687 1.2412e-08 AU
  Orbit Determination Parameters
   # obs. used (total)      1286  
   data-arc span      16075 days (44.01 yr)  
   first obs. used      1971-03-24  
   last obs. used      2015-03-28  
   planetary ephem.      DE431  
   SB-pert. ephem.      SB431-BIG16  
   condition code      0  
   fit RMS      .49945  
   data source      ORB  
   producer      Otto Matic  
   solution date      2015-Apr-07 16:19:37  

Additional Information
 Earth MOID = .848271 AU 
 T_jup = 3.600 
[ show covariance matrix ]

Ephemeris | Orbit Diagram | Orbital Elements | Physical Parameters | Discovery Circumstances ]

Physical Parameter Table
Parameter Symbol Value Units Sigma Reference Notes
absolute magnitude H 13.6 mag n/a MPO267727  

4822 Karge (1986 TC1)          Discovered 1986-Oct-04 by Bowell, E. at Flagstaff
Reference: DISCOVERY.DBLast Updated: 2003-08-29

Alternate Designations
 1986 TC1 = 1979 QM5 = 1979 QO 
Ephemeris | Orbit Diagram | Orbital Elements | Physical Parameters | Discovery Circumstances ]
ABOUT SSD CREDITS/AWARDS PRIVACY/COPYRIGHT GLOSSARY LINKS
FirstGov 2015-May-24 13:17 UT
(server date/time)  
NASA Home Page
Site Manager:   Ryan S. Park
Webmaster  Alan B. Chamberlin